Hagerstown, MD

5:28 PM EDT on May 23, 2017 (GMT -0400)
Hagerstown Regional-Henson

Weather History for KHGR - September, 2012

Change the Weather History Date:

Saturday, September 22, 2012

  Actual Average Record
Temperature  
Mean Temperature 73 °F 63 °F  
Max Temperature 82 °F 73 °F 95 °F (2010)
Min Temperature 64 °F 54 °F 41 °F (1997)
Degree Days  
Heating Degree Days 0 3  
Month to date heating degree days 25 30  
Since 1 July heating degree days 25 35  
Cooling Degree Days 8 2  
Month to date cooling degree days 120 82  
Year to date cooling degree days 1256 950  
Growing Degree Days 20 (Base 50)    
Moisture  
Dew Point 55 °F    
Average Humidity 65    
Maximum Humidity 87    
Minimum Humidity 42    
Precipitation  
Precipitation 0.00 in 0.14 in 0.82 in (2002)
Month to date precipitation 2.52 2.55  
Year to date precipitation 26.36 29.18  
Sea Level Pressure  
Sea Level Pressure 29.88 in    
Wind  
Wind Speed 9 mph (SW)    
Max Wind Speed 17 mph    
Max Gust Speed 23 mph    
Visibility 10 miles    
Events      
T = Trace of Precipitation, MM = Missing Value Source: NWS Daily Summary

Daily Weather History Graph

Daily Weather History Graph

Search for Another Location

Airport or City:

Trip Planner

Search our weather history database for the weather conditions in past years. The results will help you decide how hot, cold, wet, or windy it might be!

Date:

Astronomy

Sep. 22, 2012 Rise Set
Actual Time 6:58 AM EDT 7:07 PM EDT
Civil Twilight 6:32 AM EDT 7:34 PM EDT
Nautical Twilight 6:00 AM EDT 8:05 PM EDT
Astronomical Twilight 5:28 AM EDT 8:37 PM EDT
Moon 2:14 PM EDT (9/22) No Moon Set
Length of Visible Light 13h 02m
Length of Day
12h 08m
Waxing Crescent, 48% of the Moon is Illuminated
Sep 22
Waxing Crescent
Sep 22
First Quarter
Sep 29
Full
Oct 8
Last Quarter
Oct 15
New

Hourly Weather History & Observations

Time (EDT) Temp. Heat Index Dew Point Humidity Pressure Visibility Wind Dir Wind Speed Gust Speed Precip Events Conditions
12:53 AM 66.9 °F - 61.0 °F 81% 29.93 in 10.0 mi SSE 9.2 mph - N/A   Clear
1:53 AM 66.0 °F - 61.0 °F 84% 29.92 in 10.0 mi SSE 11.5 mph - N/A   Clear
2:53 AM 64.9 °F - 61.0 °F 87% 29.90 in 10.0 mi SE 9.2 mph - N/A   Clear
3:53 AM 64.9 °F - 60.1 °F 84% 29.88 in 10.0 mi SSE 8.1 mph - N/A   Mostly Cloudy
4:53 AM 64.9 °F - 60.1 °F 84% 29.88 in 10.0 mi South 5.8 mph - N/A   Overcast
6:53 AM 64.0 °F - 59.0 °F 84% 29.87 in 10.0 mi South 6.9 mph - N/A   Partly Cloudy
7:53 AM 64.0 °F - 60.1 °F 87% 29.88 in 10.0 mi South 9.2 mph - N/A   Clear
9:53 AM 71.1 °F - 60.1 °F 68% 29.87 in 10.0 mi South 11.5 mph - N/A   Clear
10:53 AM 73.9 °F - 60.1 °F 62% 29.86 in 10.0 mi SW 9.2 mph - N/A   Clear
11:53 AM 78.1 °F - 59.0 °F 52% 29.84 in 10.0 mi SSW 6.9 mph - N/A   Partly Cloudy
12:53 PM 80.1 °F 80.4 °F 57.0 °F 45% 29.83 in 10.0 mi SSW 11.5 mph 18.4 mph N/A   Scattered Clouds
1:53 PM 81.0 °F 80.7 °F 55.0 °F 41% 29.81 in 10.0 mi WSW 11.5 mph 21.9 mph N/A   Partly Cloudy
2:53 PM 80.1 °F 80.1 °F 55.0 °F 42% 29.81 in 10.0 mi West 12.7 mph 20.7 mph N/A   Mostly Cloudy
3:53 PM 78.1 °F - 55.9 °F 46% 29.81 in 10.0 mi WSW 6.9 mph - N/A   Overcast
4:53 PM 79.0 °F - 53.1 °F 40% 29.80 in 10.0 mi WSW 8.1 mph - N/A   Mostly Cloudy
5:53 PM 73.9 °F - 55.9 °F 53% 29.84 in 10.0 mi NW 12.7 mph 19.6 mph N/A   Overcast
6:53 PM 70.0 °F - 54.0 °F 57% 29.87 in 10.0 mi WNW 11.5 mph - N/A   Mostly Cloudy
7:53 PM 69.1 °F - 51.1 °F 53% 29.90 in 10.0 mi West 4.6 mph - N/A   Scattered Clouds
8:53 PM 66.9 °F - 50.0 °F 54% 29.92 in 10.0 mi West 3.5 mph - N/A   Clear
9:53 PM 66.0 °F - 48.9 °F 54% 29.92 in 10.0 mi WSW 4.6 mph - N/A   Clear
10:53 PM 66.0 °F - 46.0 °F 48% 29.94 in 10.0 mi WSW 5.8 mph - N/A   Partly Cloudy
11:35 PM 60.8 °F - 44.6 °F 55% 29.98 in 10.0 mi WNW 17.3 mph 33.4 mph N/A   Clear
11:53 PM 59.0 °F - 43.0 °F 55% 30.00 in 10.0 mi NW 20.7 mph 26.5 mph N/A   Clear